CN8UN-10 Weather Reports


time (UTC)temp
C
wind
direction
speed
KPH
gust
KPH
rain 1hr
cm
rain 24hr
cm
rain mn
cm
humidity
%
barometer
mb
20260906174351 30 358 4.8 8.0 0.00 0.00 0.00 100
20260906173851 30 53 4.8 8.0 0.00 0.00 0.00 100
20260906173351 30 94 0.0 8.0 0.00 0.00 0.00 100
20260906172851 30 355 0.0 9.7 0.00 0.00 0.00 100
20260906172351 30 288 1.6 9.7 0.00 0.00 0.00 100
20260906171851 30 260 4.8 6.4 0.00 0.00 0.00 100
20260906171351 30 237 3.2 6.4 0.00 0.00 0.00 100
20260906170851 30 16 0.0 8.0 0.00 0.00 0.00 100
20260906170351 30 12 3.2 12.9 0.00 0.00 0.00 100
20260906165851 30 286 6.4 11.3 0.00 0.00 0.00 100
20260906165351 30 227 4.8 11.3 0.00 0.00 0.00 100
20260906164851 30 14 6.4 8.0 0.00 0.00 0.00 100
20260906164351 30 4 0.0 11.3 0.00 0.00 0.00 100
20260906163851 30 341 11.3 12.9 0.00 0.00 0.00 100
20260906163351 30 333 9.7 14.5 0.00 0.00 0.00 100
20260906162851 30 310 3.2 17.7 0.00 0.00 0.00 100
20260906162351 30 315 6.4 12.9 0.00 0.00 0.00 100
20260906161851 31 289 0.0 9.7 0.00 0.00 0.00 100
20260906161351 30 326 6.4 12.9 0.00 0.00 0.00 100
20260906160851 31 326 8.0 11.3 0.00 0.00 0.00 100
20260906160351 31 84 6.4 14.5 0.00 0.00 0.00 100
20260906155851 31 277 8.0 9.7 0.00 0.00 0.00 100
20260906155351 31 236 4.8 9.7 0.00 0.00 0.00 100
20260906154851 31 286 6.4 11.3 0.00 0.00 0.00 100
20260906154351 30 286 1.6 12.9 0.00 0.00 0.00 100
20260906153851 31 344 8.0 12.9 0.00 0.00 0.00 100
20260906153351 30 300 12.9 14.5 0.00 0.00 0.00 100
20260906152851 31 317 8.0 14.5 0.00 0.00 0.00 100
20260906152351 31 313 8.0 14.5 0.00 0.00 0.00 100
20260906151851 31 119 0.0 12.9 0.00 0.00 0.00 100
20260906151351 31 4 3.2 11.3 0.00 0.00 0.00 100
20260906150851 31 358 4.8 16.1 0.00 0.00 0.00 100
20260906150351 31 354 1.6 11.3 0.00 0.00 0.00 100
20260906145851 31 309 4.8 12.9 0.00 0.00 0.00 100
20260906145351 30 265 3.2 12.9 0.00 0.00 0.00 100
20260906144851 31 21 4.8 12.9 0.00 0.00 0.00 100
20260906144351 31 322 4.8 12.9 0.00 0.00 0.00 100
20260906143851 31 12 6.4 12.9 0.00 0.00 0.00 100
20260906143351 31 312 4.8 11.3 0.00 0.00 0.00 100
20260906142851 31 182 1.6 14.5 0.00 0.00 0.00 100
20260906142351 31 309 4.8 14.5 0.00 0.00 0.00 100
20260906141851 30 315 4.8 14.5 0.00 0.00 0.00 100
20260906141351 30 323 6.4 12.9 0.00 0.00 0.00 100
20260906140851 30 303 11.3 12.9 0.00 0.00 0.00 100
20260906140351 30 286 6.4 14.5 0.00 0.00 0.00 100
20260906135851 30 336 4.8 12.9 0.00 0.00 0.00 100
20260906135351 30 29 4.8 11.3 0.00 0.00 0.00 100
20260906134851 31 320 6.4 14.5 0.00 0.00 0.00 100
20260906134351 31 319 3.2 12.9 0.00 0.00 0.00 100
20260906133851 31 327 8.0 17.7 0.00 0.00 0.00 100
20260906133351 30 343 12.9 14.5 0.00 0.00 0.00 100
20260906132851 31 319 8.0 16.1 0.00 0.00 0.00 100
20260906132351 31 291 3.2 12.9 0.00 0.00 0.00 100
20260906131851 31 306 4.8 11.3 0.00 0.00 0.00 100
20260906131351 31 282 4.8 11.3 0.00 0.00 0.00 100
20260906130851 31 341 4.8 8.0 0.00 0.00 0.00 100
20260906130351 32 298 3.2 11.3 0.00 0.00 0.00 100
20260906125851 31 215 0.0 9.7 0.00 0.00 0.00 100
20260906125351 31 244 3.2 9.7 0.00 0.00 0.00 100
20260906124851 31 320 4.8 11.3 0.00 0.00 0.00 100
20260906124351 31 344 1.6 11.3 0.00 0.00 0.00 100
20260906123851 31 343 3.2 11.3 0.00 0.00 0.00 100
20260906123351 31 322 6.4 14.5 0.00 0.00 0.00 100
20260906122851 31 302 4.8 14.5 0.00 0.00 0.00 100
20260906122351 31 12 6.4 16.1 0.00 0.00 0.00 100
20260906121851 31 30 1.6 16.1 0.00 0.00 0.00 100
20260906121351 32 262 3.2 14.5 0.00 0.00 0.00 100
20260906120851 32 260 1.6 9.7 0.00 0.00 0.00 100
20260906120351 32 306 8.0 11.3 0.00 0.00 0.00 100
20260906115851 32 309 4.8 11.3 0.00 0.00 0.00 100
20260906115351 32 140 1.6 11.3 0.00 0.00 0.00 100
20260906114851 32 330 6.4 9.7 0.00 0.00 0.00 100
20260906114351 32 293 1.6 8.0 0.00 0.00 0.00 100
20260906113851 33 306 0.0 9.7 0.00 0.00 0.00 100
20260906113351 32 88 3.2 9.7 0.00 0.00 0.00 100
20260906112851 32 344 9.7 9.7 0.00 0.00 0.00 100
20260906112351 32 350 4.8 6.4 0.00 0.00 0.00 100
20260906111851 32 11 1.6 6.4 0.00 0.00 0.00 100
20260906111351 32 19 0.0 3.2 0.00 0.00 0.00 100
20260906110851 32 68 1.6 9.7 0.00 0.00 0.00 100
20260906110351 31 336 3.2 8.0 0.00 0.00 0.00 100
20260906105851 31 74 3.2 6.4 0.00 0.00 0.00 100
20260906105351 31 1 0.0 6.4 0.00 0.00 0.00 100
20260906104851 31 345 1.6 4.8 0.00 0.00 0.00 100
20260906104351 30 195 3.2 8.0 0.00 0.00 0.00 100
20260906103851 31 50 6.4 11.3 0.00 0.00 0.00 100
20260906103351 30 120 3.2 8.0 0.00 0.00 0.00 100
20260906102851 30 88 4.8 6.4 0.00 0.00 0.00 100
20260906102351 30 4 3.2 8.0 0.00 0.00 0.00 100
20260906101851 30 74 4.8 6.4 0.00 0.00 0.00 100
20260906101351 30 130 3.2 3.2 0.00 0.00 0.00 100
20260906100851 30 40 1.6 6.4 0.00 0.00 0.00 100
20260906100351 30 40 0.0 1.6 0.00 0.00 0.00 100
20260906095851 30 326 0.0 6.4 0.00 0.00 0.00 100
20260906095351 30 85 0.0 1.6 0.00 0.00 0.00 100
20260906094851 30 16 0.0 6.4 0.00 0.00 0.00 100
20260906094351 30 319 0.0 3.2 0.00 0.00 0.00 100
20260906093851 30 40 0.0 0.0 0.00 0.00 0.00 100
20260906093351 30 32 0.0 0.0 0.00 0.00 0.00 100
20260906092851 29 32 0.0 3.2 0.00 0.00 0.00 100
20260906092352 30 246 0.0 3.2 0.00 0.00 0.00 100
20260906091851 30 265 0.0 1.6 0.00 0.00 0.00 100
20260906091351 29 165 0.0 0.0 0.00 0.00 0.00 100
20260906090851 29 165 0.0 3.2 0.00 0.00 0.00 100
20260906090351 29 305 1.6 4.8 0.00 0.00 0.00 100
20260906085851 29 275 1.6 1.6 0.00 0.00 0.00 100
20260906085351 29 192 0.0 0.0 0.00 0.00 0.00 100
20260906084851 28 192 0.0 3.2 0.00 0.00 0.00 100
20260906084351 28 254 0.0 3.2 0.00 0.00 0.00 100
20260906083851 28 7 0.0 4.8 0.00 0.00 0.00 100
20260906083351 28 268 1.6 9.7 0.00 0.00 0.00 100
20260906082851 28 217 3.2 6.4 0.00 0.00 0.00 100
20260906082351 28 168 0.0 8.0 0.00 0.00 0.00 100
20260906081851 28 217 3.2 4.8 0.00 0.00 0.00 100
20260906081351 27 170 1.6 6.4 0.00 0.00 0.00 100
20260906080851 27 233 1.6 6.4 0.00 0.00 0.00 100
20260906080351 27 157 1.6 4.8 0.00 0.00 0.00 100
20260906075851 27 189 0.0 4.8 0.00 0.00 0.00 100
20260906075351 27 213 0.0 3.2 0.00 0.00 0.00 100
20260906074851 27 230 3.2 6.4 0.00 0.00 0.00 100
20260906074351 27 217 1.6 6.4 0.00 0.00 0.00 100
20260906073851 27 237 1.6 6.4 0.00 0.00 0.00 100
20260906073351 27 227 1.6 4.8 0.00 0.00 0.00 100
20260906072851 27 161 0.0 6.4 0.00 0.00 0.00 100
20260906072351 27 168 0.0 4.8 0.00 0.00 0.00 100
20260906071851 27 246 0.0 6.4 0.00 0.00 0.00 100
20260906071351 27 217 1.6 6.4 0.00 0.00 0.00 100
20260906070851 27 225 1.6 9.7 0.00 0.00 0.00 100
20260906070351 27 241 6.4 8.0 0.00 0.00 0.00 100
20260906065851 27 194 3.2 9.7 0.00 0.00 0.00 100
20260906065351 27 227 0.0 0.0 0.00 0.00 0.00 100
20260906064851 27 227 0.0 3.2 0.00 0.00 0.00 100
20260906064351 27 225 0.0 1.6 0.00 0.00 0.00 100
20260906063851 26 182 0.0 1.6 0.00 0.00 0.00 100
20260906063351 26 271 1.6 3.2 0.00 0.00 0.00 100
20260906062851 26 232 0.0 6.4 0.00 0.00 0.00 100
20260906062351 26 215 1.6 4.8 0.00 0.00 0.00 100
20260906061851 26 247 0.0 8.0 0.00 0.00 0.00 100
20260906061351 26 227 3.2 8.0 0.00 0.00 0.00 100
20260906060851 26 216 0.0 0.0 0.00 0.00 0.00 100
20260906060351 26 216 0.0 1.6 0.00 0.00 0.00 100
20260906055851 26 225 0.0 4.8 0.00 0.00 0.00 100
20260906055351 26 212 0.0 6.4 0.00 0.00 0.00 100
20260906054851 26 180 0.0 6.4 0.00 0.00 0.00 100
20260906054352 26 223 0.0 6.4 0.00 0.00 0.00 100
20260906053851 26 272 1.6 6.4 0.00 0.00 0.00 100
20260906053352 26 209 0.0 4.8 0.00 0.00 0.00 100
20260906052852 26 237 4.8 8.0 0.00 0.00 0.00 100
20260906052352 26 208 0.0 1.6 0.00 0.00 0.00 100
20260906051852 26 210 0.0 12.9 0.00 0.00 0.00 100
20260906051352 26 222 0.0 6.4 0.00 0.00 0.00 100
20260906050852 26 213 0.0 4.8 0.00 0.00 0.00 100
20260906050352 26 236 3.2 6.4 0.00 0.00 0.00 100
20260906045852 25 219 0.0 8.0 0.00 0.00 0.00 100
20260906045352 25 230 0.0 6.4 0.00 0.00 0.00 100
20260906044852 26 255 3.2 8.0 0.00 0.00 0.00 100
20260906044352 25 307 0.0 8.0 0.00 0.00 0.00 100
20260906043852 26 222 3.2 11.3 0.00 0.00 0.00 100
20260906043352 26 194 0.0 11.3 0.00 0.00 0.00 100
20260906042852 26 225 9.7 9.7 0.00 0.00 0.00 100
20260906042352 26 260 0.0 11.3 0.00 0.00 0.00 100
20260906041852 26 230 9.7 14.5 0.00 0.00 0.00 100
20260906041352 26 202 12.9 12.9 0.00 0.00 0.00 100
20260906040852 26 223 12.9 12.9 0.00 0.00 0.00 100
20260906040352 26 164 1.6 12.9 0.00 0.00 0.00 100
20260906035852 26 275 1.6 11.3 0.00 0.00 0.00 100
20260906035352 25 230 8.0 12.9 0.00 0.00 0.00 100
20260906034852 26 222 6.4 11.3 0.00 0.00 0.00 100
20260906034352 26 260 4.8 12.9 0.00 0.00 0.00 100
20260906033852 26 257 9.7 11.3 0.00 0.00 0.00 100
20260906033352 26 137 1.6 9.7 0.00 0.00 0.00 100
20260906032852 26 292 1.6 11.3 0.00 0.00 0.00 100
20260906032352 26 234 4.8 9.7 0.00 0.00 0.00 100
20260906031852 26 171 0.0 11.3 0.00 0.00 0.00 100
20260906031352 26 279 3.2 11.3 0.00 0.00 0.00 100
20260906030852 26 225 3.2 9.7 0.00 0.00 0.00 100
20260906030352 26 220 3.2 11.3 0.00 0.00 0.00 100
20260906025852 26 255 0.0 6.4 0.00 0.00 0.00 100
20260906025352 26 320 0.0 11.3 0.00 0.00 0.00 100
20260906024852 26 352 0.0 9.7 0.00 0.00 0.00 100
20260906024352 26 324 1.6 9.7 0.00 0.00 0.00 100
20260906023852 26 187 0.0 8.0 0.00 0.00 0.00 100
20260906023352 26 282 6.4 8.0 0.00 0.00 0.00 100
20260906022852 26 223 3.2 9.7 0.00 0.00 0.00 100
20260906022352 26 217 4.8 9.7 0.00 0.00 0.00 100
20260906021852 26 264 0.0 11.3 0.00 0.00 0.00 100
20260906021352 26 226 8.0 8.0 0.00 0.00 0.00 100
20260906020852 26 205 4.8 8.0 0.00 0.00 0.00 100
20260906020352 26 286 3.2 12.9 0.00 0.00 0.00 100
20260906015852 26 248 6.4 12.9 0.00 0.00 0.00 100
20260906015352 26 279 3.2 11.3 0.00 0.00 0.00 100
20260906014852 26 251 9.7 14.5 0.00 0.00 0.00 100
20260906014352 26 229 9.7 12.9 0.00 0.00 0.00 100
20260906013852 26 257 3.2 11.3 0.00 0.00 0.00 100
20260906013352 26 226 6.4 11.3 0.00 0.00 0.00 100
20260906012852 26 240 3.2 8.0 0.00 0.00 0.00 100
20260906012352 27 213 6.4 8.0 0.00 0.00 0.00 100
20260906011852 27 244 6.4 12.9 0.00 0.00 0.00 100
20260906011352 27 220 4.8 8.0 0.00 0.00 0.00 100
20260906010852 27 196 1.6 8.0 0.00 0.00 0.00 100
20260906010352 26 205 1.6 11.3 0.00 0.00 0.00 100
20260906005852 26 170 3.2 9.7 0.00 0.00 0.00 100
20260906005352 26 313 0.0 11.3 0.00 0.00 0.00 100
20260906004852 26 236 0.0 8.0 0.00 0.00 0.00 100
20260906004352 26 300 0.0 9.7 0.00 0.00 0.00 100
20260906003852 26 191 4.8 12.9 0.00 0.00 0.00 100
20260906003352 26 195 4.8 12.9 0.00 0.00 0.00 100
20260906002852 26 264 4.8 12.9 0.00 0.00 0.00 100
20260906002352 27 292 4.8 9.7 0.00 0.00 0.00 100
20260906001852 27 258 1.6 6.4 0.00 0.00 0.00 100
20260906001352 27 319 0.0 4.8 0.00 0.00 0.00 100
20260906000852 27 262 1.6 6.4 0.00 0.00 0.00 100
20260906000352 26 243 3.2 4.8 0.00 0.00 0.00 100
20260905235852 27 227 3.2 9.7 0.00 0.00 0.00 100
20260905235352 27 248 6.4 11.3 0.00 0.00 0.00 100
20260905234852 27 226 6.4 11.3 0.00 0.00 0.00 100
20260905234352 27 253 4.8 12.9 0.00 0.00 0.00 100
20260905233852 27 220 8.0 9.7 0.00 0.00 0.00 100
20260905233352 27 171 0.0 0.0 0.00 0.00 0.00 100
20260905232852 27 171 0.0 4.8 0.00 0.00 0.00 100
20260905232352 27 341 0.0 4.8 0.00 0.00 0.00 100
20260905231852 27 293 3.2 4.8 0.00 0.00 0.00 100
20260905231352 26 222 0.0 4.8 0.00 0.00 0.00 100
20260905230852 27 2 0.0 3.2 0.00 0.00 0.00 100
20260905230352 27 181 0.0 4.8 0.00 0.00 0.00 100
20260905225852 26 255 0.0 9.7 0.00 0.00 0.00 100
20260905225352 27 229 0.0 14.5 0.00 0.00 0.00 100
20260905224852 27 285 4.8 16.1 0.00 0.00 0.00 100
20260905224353 27 175 0.0 16.1 0.00 0.00 0.00 100
20260905223852 27 219 1.6 12.9 0.00 0.00 0.00 100
20260905223352 27 250 9.7 14.5 0.00 0.00 0.00 100
20260905222852 27 205 3.2 17.7 0.00 0.00 0.00 100
20260905222352 27 272 4.8 16.1 0.00 0.00 0.00 100
20260905221852 27 198 11.3 16.1 0.00 0.00 0.00 100
20260905221352 27 232 6.4 11.3 0.00 0.00 0.00 100
20260905220852 27 309 0.0 11.3 0.00 0.00 0.00 100
20260905220352 27 168 0.0 9.7 0.00 0.00 0.00 100
20260905215852 27 262 3.2 11.3 0.00 0.00 0.00 100
20260905215352 27 331 1.6 11.3 0.00 0.00 0.00 100
20260905214852 27 322 6.4 11.3 0.00 0.00 0.00 100
20260905214352 27 326 4.8 12.9 0.00 0.00 0.00 100
20260905213852 27 18 1.6 9.7 0.00 0.00 0.00 100
20260905213352 27 257 3.2 6.4 0.00 0.00 0.00 100
20260905212852 27 185 0.0 8.0 0.00 0.00 0.00 100
20260905212352 27 192 0.0 1.6 0.00 0.00 0.00 100
20260905211852 27 233 0.0 3.2 0.00 0.00 0.00 100
20260905211352 27 303 1.6 3.2 0.00 0.00 0.00 100
20260905210852 27 192 0.0 4.8 0.00 0.00 0.00 100
20260905210352 27 220 1.6 4.8 0.00 0.00 0.00 100
20260905205852 27 261 1.6 6.4 0.00 0.00 0.00 100
20260905205352 27 286 0.0 4.8 0.00 0.00 0.00 100
20260905204852 27 241 1.6 4.8 0.00 0.00 0.00 100
20260905204352 27 247 3.2 4.8 0.00 0.00 0.00 100
20260905203852 27 158 0.0 3.2 0.00 0.00 0.00 100
20260905203352 27 182 1.6 3.2 0.00 0.00 0.00 100
20260905202852 27 185 0.0 3.2 0.00 0.00 0.00 100
20260905202352 27 172 0.0 0.0 0.00 0.00 0.00 100
20260905201852 27 172 0.0 0.0 0.00 0.00 0.00 100
20260905201352 27 172 0.0 0.0 0.00 0.00 0.00 100
20260905200852 27 172 0.0 0.0 0.00 0.00 0.00 100
20260905200352 27 172 0.0 0.0 0.00 0.00 0.00 100
20260905195852 27 172 0.0 0.0 0.00 0.00 0.00 100
20260905195352 27 172 0.0 0.0 0.00 0.00 0.00 100
20260905194852 27 172 0.0 0.0 0.00 0.00 0.00 100
20260905194352 27 172 0.0 0.0 0.00 0.00 0.00 100
20260905193852 27 172 0.0 0.0 0.00 0.00 0.00 100
20260905193352 27 300 0.0 0.0 0.00 0.00 0.00 100
20260905192852 27 300 0.0 4.8 0.00 0.00 0.00 100
20260905192352 26 59 0.0 4.8 0.00 0.00 0.00 100
20260905191852 26 30 4.8 4.8 0.00 0.00 0.00 100
20260905191352 27 344 4.8 6.4 0.00 0.00 0.00 100
20260905190852 27 12 3.2 8.0 0.00 0.00 0.00 100
20260905190352 27 23 4.8 8.0 0.00 0.00 0.00 100
20260905185852 27 1 6.4 6.4 0.00 0.00 0.00 100
20260905185352 27 112 3.2 6.4 0.00 0.00 0.00 100
20260905184852 27 199 0.0 4.8 0.00 0.00 0.00 100
20260905184352 28 331 3.2 8.0 0.00 0.00 0.00 100
20260905183852 28 14 4.8 8.0 0.00 0.00 0.00 100
20260905183352 28 270 1.6 8.0 0.00 0.00 0.00 100
20260905182852 28 209 0.0 6.4 0.00 0.00 0.00 100
20260905182352 28 315 0.0 4.8 0.00 0.00 0.00 100
20260905181852 28 203 0.0 1.6 0.00 0.00 0.00 100
20260905181352 28 223 1.6 3.2 0.00 0.00 0.00 100
20260905180852 28 23 0.0 0.0 0.00 0.00 0.00 100
20260905180352 28 23 0.0 0.0 0.00 0.00 0.00 100
20260905175852 28 23 0.0 1.6 0.00 0.00 0.00 100
20260905175352 27 265 1.6 3.2 0.00 0.00 0.00 100
20260905174852 27 279 0.0 6.4 0.00 0.00 0.00 100